Regional Weather Roundup
Issued by NWS

Home | Current Version | Previous Version | Graphics & Text | Print | Product List | Glossary On
Versions: 1 2 3 4 5 6 7 8 9 10 11 12 13 14 15 16 17 18 19 20 21 22 23 24 25 26 27 28 29 30 31 32 33 34 35 36 37 38 39 40 41 42 43 44 45 46 47 48 49 50
000
ASUS45 KTFX 211204
RWRMT
MONTANA HOURLY WEATHER ROUNDUP
NATIONAL WEATHER SERVICE GREAT FALLS MT
604 AM MDT TUE OCT 21 2014

NOTE: "FAIR" INDICATES FEW OR NO CLOUDS BELOW 12000 FEET WITH NO
SIGNIFICANT WEATHER AND/OR OBSTRUCTIONS TO VISIBILITY.

* THESE STATIONS ARE NOT UNDER NWS QUALITY CONTROL. THEY DO NOT
   REPORT WEATHER SUCH AS PRECIPITATION OR FOG.

MTZ001>007-043-211300-
WEST OF THE DIVIDE
CITY           SKY/WX    TMP DP  RH WIND       PRES   REMARKS
KALISPELL      CLOUDY    41  39  93 CALM      29.76S
MISSOULA       LGT RAIN  52  43  72 N8        29.77F
BUTTE          MOCLDY    46  34  63 CALM      29.78F
MULLAN PASS    LGT RAIN  37  37 100 NW8       29.84S VSB 1/2  WCI  31
* ESSEX        N/A       39  35  86 N/A        N/A
* LINCOLN      N/A       34  30  85 N/A        N/A
* RONAN APT    CLOUDY    48  43  83 N/A        N/A
* SEELEY LAKE  N/A       38  34  86 NE2        N/A
* THOMP F APT  CLOUDY    49  40  71 E8G18      N/A
$$

MTZ008-052>055-211300-
SOUTHWEST MONTANA
CITY           SKY/WX    TMP DP  RH WIND       PRES   REMARKS
BOZEMAN        MOCLDY    45  36  71 SE3       29.76F
DILLON         CLOUDY    52  36  55 CALM      29.76F
W YELLOWSTONE  LGT RAIN  32  32 100 E3        29.94R
* THREE FORKS  MOCLDY    41  41 100 N/A        N/A
* BOULDER HILL N/A       50  29  44 S5         N/A
* MONIDA PASS  N/A       44  35  71 SE4        N/A
* RAYNOLDS PAS N/A       49  30  48 S16        N/A
* WHITEHALL    N/A       45  32  60 NW4G10     N/A
* WISE RIVER   N/A       36  30  79 SE1G10     N/A
$$

MTZ009>010-012-014-046-048-049-054-211300-
EAST SLOPES AND CENTRAL MONTANA
CITY           SKY/WX    TMP DP  RH WIND       PRES   REMARKS
CUT BANK       CLOUDY    57  36  46 W12       29.66F
GREAT FALLS    MOCLDY    52  36  55 S8        29.67S
HELENA         PTCLDY    46  36  68 CALM      29.72S
MALMSTROM AFB  MOCLDY    52  36  55 S5        29.67F
* CONRAD       CLOUDY    43  36  76 N/A        N/A
* DEARBORN     N/A       43  37  79 S3         N/A
* EAST GLACIER N/A       53  33  47 W12        N/A
* MONARCH      N/A       55  31  40 S8         N/A
* PENDROY      N/A       52  33  48 W1         N/A
* ROGERS PASS  N/A       51  31  46 NW3        N/A
* SAINT MARY   N/A       56  33  42 S6G17      N/A
* SWEET GRASS  N/A       58  28  32 NW6        N/A
$$

MTZ011-013-016-021-035-040-045-047-050-051-211300-
NORTH CENTRAL MONTANA
CITY           SKY/WX    TMP DP  RH WIND       PRES   REMARKS
HAVRE          PTCLDY    36  34  92 SW6       29.64S WCI  31
LEWISTOWN      CLEAR     54  36  51 VRB3      29.73R
* CHINOOK      CLEAR     45  37  74 CALM      29.64R
* FORT BENTON  PTCLDY    45  34  65 CALM      29.67R
* DENTON       N/A       47  36  66 SE4        N/A
* GEYSER       N/A       60  37  43 S15        N/A
* JUDITH GAP   N/A       45  36  71 S4         N/A
* LOMA         N/A       43  33  68 SW4        N/A
$$

MTZ017>020-022>027-061-062-211300-
NORTHEAST MONTANA
CITY           SKY/WX    TMP DP  RH WIND       PRES   REMARKS
GLASGOW        CLEAR     46  37  71 E15       29.68S
GLENDIVE       CLEAR     39  36  89 N/A       29.75F
JORDAN         CLEAR     34  28  79 CALM      29.70S
SIDNEY         CLEAR     36  34  92 CALM      29.76F
WOLF POINT     CLEAR     37  34  89 E6        29.72S WCI  32
* BEAVER HILL  N/A       45  40  83 SE11       N/A
* CIRCLE       N/A       49  41  74 N/A        N/A
* LINDSAY DVD  N/A       48  40  74 E2         N/A
* NAVAJO       N/A       44  40  86 S7         N/A
$$

MTZ028>042-056>058-211300-
SOUTHCENTRAL AND SOUTHEAST MONTANA
CITY           SKY/WX    TMP DP  RH WIND       PRES   REMARKS
BAKER          CLEAR     43  39  86 SE7       29.76F
BILLINGS       CLEAR     50  28  43 SW15      29.75S
LIVINGSTON     PTCLDY    48  34  59 E3        29.77F
MILES CITY     CLEAR     43  37  79 E3        29.73S
* LAUREL APT   CLEAR     48  27  44 N/A        N/A
* ROUNDUP APT  CLEAR     43  28  56 SW7        N/A
* ALZADA       N/A       48  38  68 E5         N/A
* HYSHAM       N/A       55  27  34 W7         N/A
* LAME DEER    N/A       65  31  28 N/A        N/A
* REED POINT   N/A       35  34  96 E1         N/A
* ROSCOE HILL  N/A       57  25  29 S3G13      N/A
$$

REGIONAL REPORTS...DAKOTAS
CITY           SKY/WX    TMP DP  RH WIND       PRES   REMARKS
WILLISTON      CLEAR     45  37  74 CALM      29.76S
DICKINSON      CLEAR     37  34  89 E7        29.77F WCI  32
BEACH          N/A       39  39 100 S6        29.77F WCI  35
CROSBY         CLEAR     46  39  77 S13       29.76F
TIOGA          CLEAR     43  37  79 SE7       29.81F
BISMARCK       CLEAR     50  36  59 SE7       29.85F
GRAND FORKS    CLEAR     37  36  96 SE9       30.03F WCI  30
FARGO          CLEAR     45  37  74 SE14      30.04F
BUFFALO SD     CLEAR     48  39  71 S8        29.72F
RAPID CITY     CLEAR     48  37  66 SE3       29.84S
$$

REGIONAL REPORTS...WYOMING/IDAHO/WASHINGTON
CITY           SKY/WX    TMP DP  RH WIND       PRES   REMARKS
GILLETTE       PTCLDY    61  34  36 SW21G28   29.82F
SHERIDAN       PTCLDY    39  28  65 CALM      29.79S
CODY           CLEAR    N/A N/A N/A S5        29.84S
YELLOWSTONE LA CLEAR     28  27  96 CALM      30.00F
SALMON         CLOUDY    48  43  83 N7        29.73F
MULLAN PASS    LGT RAIN  37  37 100 NW8       29.84S VSB 1/2  WCI  31
SAND POINT     CLOUDY    50  45  83 SW6       29.84R
SPOKANE        CLOUDY    48  45  89 S8        29.84S

$$



USA.gov is the U.S. government's official web portal to all federal, state and local government web resources and services.